Location: Carrières
(48.9495°N, 2.0407°E)
Time: 11:25:47
(UTC+00:00)

Cosmos 1241 Rocket - Pass Details

Date: 01 October 2023
Orbit: 941 x 1006 km, 65.8° (Epoch: 07 December)

Event Time Altitude Azimuth Distance (km) Brightness Sun altitude
Rises 19:29:37 0° 314° (NW) 3,645 8.6 -20.0°
Reaches altitude 10° 19:32:45 10° 300° (WNW) 2,685 8.0 -20.5°
Maximum altitude 19:37:19 22° 253° (WSW) 1,954 6.7 -21.2°
Drops below altitude 10° 19:41:51 10° 205° (SSW) 2,653 6.8 -21.9°
Sets 19:44:56 0° 190° (S) 3,589 7.4 -22.3°
